| time (UTC) | temp F | wind direction | speed knots | gust knots | rain 1hr in | rain 24hr in | rain mn in | humidity % | barometer mb |
| 20260507090914 | 43 | 226 | 7.0 | 11.3 | 0.00 | 0.00 | 0.00 | 85 | 1012.0 |
| 20260507083914 | 43 | 233 | 7.8 | 13.0 | 0.00 | 0.00 | 0.00 | 83 | 1012.3 |
| 20260507073914 | 44 | 241 | 7.8 | 12.2 | 0.00 | 0.00 | 0.00 | 81 | 1013.0 |
| 20260507070914 | 45 | 233 | 8.7 | 12.2 | 0.00 | 0.00 | 0.00 | 79 | 1013.3 |
| 20260507054914 | 47 | 229 | 10.4 | 14.8 | 0.00 | 0.00 | 0.00 | 73 | 1013.9 |
| 20260507053915 | 47 | 214 | 8.7 | 13.0 | 0.00 | 0.00 | 0.00 | 72 | 1014.0 |
| 20260507050914 | 47 | 235 | 8.7 | 12.2 | 0.00 | 0.00 | 0.00 | 68 | 1014.0 |
| 20260507044914 | 47 | 226 | 8.7 | 12.2 | 0.00 | 0.00 | 0.00 | 65 | 1014.2 |
| 20260507033914 | 47 | 243 | 7.0 | 10.4 | 0.00 | 0.00 | 0.00 | 59 | 1014.5 |
| 20260507031914 | 48 | 229 | 5.2 | 7.8 | 0.00 | 0.00 | 0.00 | 55 | 1014.5 |
| 20260507024914 | 49 | 243 | 5.2 | 7.8 | 0.00 | 0.00 | 0.00 | 50 | 1014.5 |
| 20260507014914 | 54 | 226 | 1.7 | 2.6 | 0.00 | 0.00 | 0.00 | 39 | 1014.0 |
| 20260507013914 | 55 | 221 | 2.6 | 4.3 | 0.00 | 0.00 | 0.00 | 37 | 1014.0 |
| 20260507011914 | 57 | 235 | 4.3 | 5.2 | 0.00 | 0.00 | 0.00 | 34 | 1014.0 |
| 20260507004915 | 59 | 266 | 6.1 | 10.4 | 0.00 | 0.00 | 0.00 | 31 | 1014.0 |
| 20260507001915 | 60 | 260 | 5.2 | 10.4 | 0.00 | 0.00 | 0.00 | 30 | 1014.2 |
| 20260507000914 | 60 | 325 | 7.8 | 11.3 | 0.00 | 0.00 | 0.00 | 30 | 1014.1 |
| 20260506231914 | 61 | 276 | 8.7 | 13.0 | 0.00 | 0.00 | 0.00 | 27 | 1014.5 |
| 20260506230914 | 62 | 298 | 7.0 | 11.3 | 0.00 | 0.00 | 0.00 | 28 | 1014.5 |
| 20260506223914 | 62 | 324 | 6.1 | 14.8 | 0.00 | 0.00 | 0.00 | 28 | 1014.8 |
| 20260506220916 | 60 | 306 | 8.7 | 13.9 | 0.00 | 0.00 | 0.00 | 29 | 1014.9 |
| 20260506203915 | 59 | 242 | 3.5 | 17.4 | 0.00 | 0.00 | 0.00 | 30 | 1016.2 |
| 20260506201914 | 60 | 285 | 11.3 | 17.4 | 0.00 | 0.00 | 0.00 | 28 | 1016.3 |
| 20260506200916 | 61 | 263 | 8.7 | 19.1 | 0.00 | 0.00 | 0.00 | 28 | 1016.4 |
| 20260506194914 | 60 | 281 | 7.8 | 15.6 | 0.00 | 0.00 | 0.00 | 30 | 1016.6 |
| 20260506174915 | 58 | 17 | 8.7 | 14.8 | 0.00 | 0.00 | 0.00 | 34 | 1017.6 |
| 20260506171914 | 56 | 254 | 8.7 | 13.0 | 0.00 | 0.00 | 0.00 | 35 | 1017.9 |
| 20260506170914 | 55 | 279 | 9.6 | 13.0 | 0.00 | 0.00 | 0.00 | 35 | 1018.0 |
| 20260506154914 | 53 | 323 | 7.0 | 10.4 | 0.00 | 0.00 | 0.00 | 37 | 1018.2 |
| 20260506151914 | 52 | 286 | 4.3 | 7.0 | 0.00 | 0.00 | 0.00 | 39 | 1018.1 |
| 20260506144914 | 51 | 8 | 3.5 | 5.2 | 0.00 | 0.00 | 0.00 | 41 | 1017.9 |
| 20260506133914 | 49 | 352 | 2.6 | 5.2 | 0.00 | 0.00 | 0.00 | 46 | 1017.7 |
| 20260506124914 | 44 | 347 | 4.3 | 6.1 | 0.00 | 0.00 | 0.00 | 60 | 1017.1 |
| 20260506121914 | 42 | 337 | 2.6 | 5.2 | 0.00 | 0.00 | 0.00 | 66 | 1016.6 |
| 20260506114914 | 42 | 339 | 2.6 | 2.6 | 0.00 | 0.00 | 0.00 | 66 | 1016.1 |
| 20260506113915 | 42 | 327 | 1.7 | 2.6 | 0.00 | 0.00 | 0.00 | 66 | 1015.9 |
| 20260506111915 | 42 | 323 | 0.9 | 2.6 | 0.00 | 0.00 | 0.00 | 66 | 1015.8 |
| 20260506104915 | 43 | 314 | 1.7 | 2.6 | 0.00 | 0.00 | 0.00 | 63 | 1015.7 |
| 20260506103915 | 43 | 321 | 1.7 | 2.6 | 0.00 | 0.00 | 0.00 | 63 | 1015.7 |